GW3138 Weather Reports


Display with metric or nautical units.
time (UTC)temp
F
wind
direction
speed
MPH
gust
MPH
rain 1hr
in
rain 24hr
in
rain mn
in
humidity
%
barometer
mb
20260906120038 72 0 0.0 2.0 0.00 0.03 0.03 95 1014.8
20260906115519 72 356 0.0 3.0 0.00 0.03 0.03 95 1014.7
20260906115017 72 0 0.0 5.0 0.00 0.03 0.03 95 1014.7
20260906114540 72 0 1.0 5.0 0.00 0.03 0.03 95 1014.5
20260906114018 71 27 0.0 1.0 0.00 0.03 0.03 95 1014.3
20260906113519 72 0 0.0 0.0 0.00 0.03 0.03 95 1014.2
20260906113044 72 0 0.0 1.0 0.00 0.03 0.03 95 1014.4
20260906112517 72 0 0.0 4.0 0.00 0.03 0.03 95 1014.5
20260906112021 72 320 0.0 7.0 0.00 0.03 0.03 95 1014.6
20260906111535 72 354 2.0 9.0 0.00 0.03 0.03 94 1014.4
20260906111019 72 293 3.0 9.0 0.00 0.03 0.03 94 1014.2
20260906110522 72 264 3.0 9.0 0.00 0.03 0.03 95 1014.2
20260906110037 71 296 3.0 9.0 0.00 0.03 0.03 95 1014.0
20260906105521 71 343 3.0 13.0 0.00 0.03 0.03 95 1013.9
20260906105019 71 299 3.0 13.0 0.00 0.03 0.03 95 1013.9
20260906104541 71 292 4.0 11.0 0.00 0.03 0.03 95 1013.8
20260906104017 71 11 4.0 11.0 0.00 0.03 0.03 96 1013.9
20260906103517 71 359 3.0 7.0 0.00 0.03 0.03 96 1014.0
20260906103050 71 293 3.0 8.0 0.00 0.03 0.03 96 1014.0
20260906102522 71 308 2.0 8.0 0.00 0.03 0.03 96 1014.1
20260906102020 71 1 2.0 6.0 0.00 0.03 0.03 96 1014.1
20260906101535 71 304 2.0 6.0 0.00 0.03 0.03 96 1014.0
20260906101023 71 349 2.0 7.0 0.00 0.03 0.03 96 1014.2
20260906100520 71 299 2.0 7.0 0.00 0.03 0.03 96 1014.1
20260906100037 71 290 2.0 6.0 0.00 0.03 0.03 96 1014.2
20260906095517 71 356 1.0 5.0 0.00 0.03 0.03 96 1013.9
20260906095020 71 273 1.0 6.0 0.00 0.03 0.03 96 1014.0
20260906094539 71 22 1.0 6.0 0.00 0.03 0.03 97 1013.9
20260906094021 71 313 1.0 4.0 0.00 0.03 0.03 97 1014.0
20260906093521 71 299 1.0 4.0 0.00 0.03 0.03 97 1014.2
20260906093044 70 283 1.0 4.0 0.00 0.03 0.03 97 1014.2
20260906092523 71 305 0.0 1.0 0.00 0.03 0.03 97 1014.2
20260906092022 70 329 0.0 1.0 0.00 0.03 0.03 97 1014.2
20260906091539 71 0 0.0 1.0 0.00 0.03 0.03 97 1014.3
20260906091019 70 0 0.0 1.0 0.00 0.03 0.03 97 1014.5
20260906090520 70 332 0.0 1.0 0.00 0.03 0.03 97 1014.4
20260906090039 70 0 0.0 3.0 0.00 0.03 0.03 96 1014.4
20260906085519 70 0 0.0 3.0 0.01 0.03 0.03 96 1014.1
20260906085021 70 0 0.0 2.0 0.02 0.03 0.03 96 1014.2
20260906084536 70 0 0.0 2.0 0.03 0.03 0.03 96 1014.2
20260906084020 70 347 0.0 3.0 0.03 0.03 0.03 96 1014.2
20260906083519 71 354 0.0 3.0 0.03 0.03 0.03 96 1014.1
20260906083037 71 8 1.0 3.0 0.03 0.03 0.03 96 1014.0
20260906082522 71 34 0.0 2.0 0.03 0.03 0.03 96 1013.9
20260906082018 70 0 0.0 1.0 0.03 0.03 0.03 96 1013.8
20260906081536 70 42 0.0 1.0 0.03 0.03 0.03 96 1013.8
20260906081019 71 0 0.0 2.0 0.03 0.03 0.03 95 1013.9
20260906080521 71 35 0.0 2.0 0.03 0.03 0.03 95 1013.9
20260906080035 72 63 0.0 2.0 0.03 0.03 0.03 95 1013.8
20260906075519 72 53 1.0 2.0 0.01 0.01 0.01 95 1013.6
20260906075019 72 359 1.0 3.0 0.01 0.01 0.01 94 1013.7
20260906074539 73 19 0.0 3.0 0.00 0.00 0.00 93 1013.6
20260906074016 73 1 1.0 2.0 0.00 0.00 0.00 88 1013.6
20260906073523 73 0 0.0 2.0 0.00 0.00 0.00 88 1013.7
20260906073037 73 4 1.0 3.0 0.00 0.00 0.00 87 1013.7
20260906072519 73 352 1.0 3.0 0.00 0.00 0.00 86 1013.9
20260906072024 74 349 2.0 3.0 0.00 0.00 0.00 85 1013.9
20260906071535 74 348 2.0 3.0 0.00 0.00 0.00 84 1013.9
20260906071018 74 27 1.0 2.0 0.00 0.00 0.00 84 1013.9
20260906070520 74 0 0.0 1.0 0.00 0.00 0.00 85 1014.0
20260906070037 74 0 0.0 2.0 0.00 0.00 0.00 85 1013.9
20260906065521 74 0 0.0 4.0 0.00 0.00 0.00 85 1013.8
20260906065018 74 12 2.0 4.0 0.00 0.00 0.00 84 1013.7
20260906064542 74 6 1.0 3.0 0.00 0.00 0.00 84 1013.8
20260906064020 75 0 0.0 0.0 0.00 0.00 0.00 83 1013.8
20260906063522 75 0 0.0 0.0 0.00 0.00 0.00 82 1014.1
20260906063036 75 0 0.0 0.0 0.00 0.00 0.00 81 1014.1
20260906062520 75 0 0.0 0.0 0.00 0.00 0.00 82 1014.0
20260906062019 75 0 0.0 0.0 0.00 0.00 0.00 82 1013.9
20260906061538 75 0 0.0 0.0 0.00 0.00 0.00 83 1014.1
20260906061019 75 0 0.0 0.0 0.00 0.00 0.00 83 1014.1
20260906060519 75 0 0.0 0.0 0.00 0.00 0.00 83 1014.0
20260906060035 76 0 0.0 0.0 0.00 0.00 0.00 82 1014.1
20260906055522 76 0 0.0 0.0 0.00 0.00 0.00 82 1014.4
20260906055019 76 0 0.0 0.0 0.00 0.00 0.00 82 1014.3
20260906054539 76 0 0.0 0.0 0.00 0.00 0.00 81 1014.0
20260906054022 76 0 0.0 0.0 0.00 0.00 0.00 80 1014.2
20260906053523 76 0 0.0 0.0 0.00 0.00 0.00 80 1014.3
20260906053038 76 0 0.0 0.0 0.00 0.00 0.00 80 1014.5
20260906052518 76 0 0.0 0.0 0.00 0.00 0.00 80 1014.5
20260906052020 76 0 0.0 0.0 0.00 0.00 0.00 80 1014.5
20260906051537 76 0 0.0 0.0 0.00 0.00 0.00 81 1014.6
20260906051022 76 0 0.0 0.0 0.00 0.00 0.00 80 1014.6
20260906050524 76 0 0.0 0.0 0.00 0.00 0.00 80 1014.6
20260906050036 76 0 0.0 0.0 0.00 0.00 0.00 80 1014.7
20260906045523 76 0 0.0 0.0 0.00 0.00 0.00 79 1014.8
20260906045018 76 0 0.0 0.0 0.00 0.00 0.00 78 1014.9
20260906044542 77 0 0.0 0.0 0.00 0.00 0.00 78 1014.8
20260906044024 76 0 0.0 0.0 0.00 0.00 0.00 77 1014.9
20260906043519 76 0 0.0 0.0 0.00 0.00 0.00 78 1015.0
20260906043035 76 0 0.0 0.0 0.00 0.00 0.00 81 1014.9
20260906042521 76 0 0.0 0.0 0.00 0.00 0.00 81 1015.1
20260906042021 76 0 0.0 0.0 0.00 0.00 0.00 81 1014.7
20260906041536 77 0 0.0 0.0 0.00 0.00 0.00 81 1014.9
20260906041022 77 0 0.0 0.0 0.00 0.00 0.00 80 1014.9
20260906040519 77 0 0.0 0.0 0.00 0.00 0.00 80 1014.9
20260906040041 77 0 0.0 0.0 0.00 0.00 0.00 79 1014.9
20260906035524 77 0 0.0 0.0 0.00 0.00 0.00 79 1015.0
20260906035018 77 0 0.0 0.0 0.00 0.00 0.00 79 1015.0
20260906034538 78 0 0.0 0.0 0.00 0.00 0.00 79 1015.1
20260906034019 78 0 0.0 0.0 0.00 0.00 0.00 78 1015.1
20260906033521 78 0 0.0 0.0 0.00 0.00 0.00 78 1015.1
20260906033038 78 0 0.0 0.0 0.00 0.00 0.00 78 1015.1
20260906032520 78 0 0.0 0.0 0.00 0.00 0.00 77 1015.1
20260906032024 78 0 0.0 0.0 0.00 0.00 0.00 77 1015.0
20260906031534 78 0 0.0 0.0 0.00 0.00 0.00 77 1014.9
20260906031022 78 0 0.0 0.0 0.00 0.00 0.00 77 1015.1
20260906030519 78 0 0.0 0.0 0.00 0.00 0.00 77 1015.1
20260906030043 78 0 0.0 0.0 0.00 0.00 0.00 77 1015.1
20260906025516 79 0 0.0 0.0 0.00 0.00 0.00 77 1015.1
20260906025020 79 0 0.0 0.0 0.00 0.00 0.00 76 1014.8
20260906024541 79 0 0.0 0.0 0.00 0.00 0.00 76 1014.8
20260906024020 80 0 0.0 0.0 0.00 0.00 0.00 75 1015.0
20260906023520 80 0 0.0 0.0 0.00 0.00 0.00 73 1015.1
20260906023042 80 0 0.0 0.0 0.00 0.00 0.00 72 1014.9
20260906022519 80 0 0.0 0.0 0.00 0.00 0.00 72 1014.9
20260906022019 80 0 0.0 0.0 0.00 0.00 0.00 72 1014.8
20260906021542 80 0 0.0 0.0 0.00 0.00 0.00 72 1014.8
20260906021020 80 0 0.0 0.0 0.00 0.00 0.00 73 1014.6
20260906020522 80 0 0.0 0.0 0.00 0.00 0.00 73 1014.6
20260906020039 80 0 0.0 1.0 0.00 0.00 0.00 73 1014.6
20260906015519 80 0 0.0 1.0 0.00 0.00 0.00 72 1014.5
20260906015021 80 0 0.0 1.0 0.00 0.00 0.00 72 1014.5
20260906014547 80 152 0.0 0.0 0.00 0.00 0.00 72 1014.6
20260906014021 80 153 0.0 0.0 0.00 0.00 0.00 72 1014.6
20260906013521 80 0 0.0 0.0 0.00 0.00 0.00 72 1014.9
20260906013043 80 0 0.0 0.0 0.00 0.00 0.00 71 1014.6
20260906012522 81 0 0.0 0.0 0.00 0.00 0.00 71 1014.8
20260906012020 81 0 0.0 0.0 0.00 0.00 0.00 70 1014.9
20260906011537 81 0 0.0 0.0 0.00 0.00 0.00 69 1014.7
20260906011019 81 0 0.0 1.0 0.00 0.00 0.00 68 1014.7
20260906010521 82 0 0.0 1.0 0.00 0.00 0.00 68 1014.6
20260906010036 82 0 0.0 1.0 0.00 0.00 0.00 67 1014.5
20260906005520 82 0 0.0 2.0 0.00 0.00 0.00 66 1013.9
20260906005020 82 0 0.0 2.0 0.00 0.00 0.00 66 1013.4
20260906004537 83 329 0.0 2.0 0.00 0.00 0.00 64 1013.3
20260906004025 83 63 0.0 3.0 0.00 0.00 0.00 64 1013.3
20260906003518 83 0 0.0 3.0 0.00 0.00 0.00 63 1013.2
20260906003037 83 0 0.0 2.0 0.00 0.00 0.00 64 1013.1
20260906002521 83 102 0.0 2.0 0.00 0.00 0.00 64 1013.1
20260906002023 83 139 0.0 2.0 0.00 0.00 0.00 62 1013.3
20260906001539 83 137 0.0 3.0 0.00 0.00 0.00 63 1013.3
20260906001017 84 0 0.0 6.0 0.00 0.00 0.00 61 1013.4
20260906000521 84 100 0.0 6.0 0.00 0.00 0.00 60 1013.4
20260906000038 84 108 0.0 3.0 0.00 0.00 0.00 61 1013.5
20260905235519 84 158 0.0 4.0 0.00 0.00 0.00 60 1013.6
20260905235017 84 68 0.0 7.0 0.00 0.00 0.00 61 1013.8
20260905234540 84 73 1.0 7.0 0.00 0.00 0.00 61 1013.8
20260905234020 84 212 0.0 5.0 0.00 0.00 0.00 62 1013.7
20260905233525 84 0 1.0 6.0 0.00 0.00 0.00 63 1013.6
20260905233037 84 308 2.0 6.0 0.00 0.00 0.00 64 1013.6
20260905232521 84 203 2.0 6.0 0.00 0.00 0.00 63 1013.3
20260905232022 84 330 2.0 6.0 0.00 0.00 0.00 64 1013.1
20260905231537 84 340 1.0 6.0 0.00 0.00 0.00 64 1012.9
20260905231020 85 337 1.0 5.0 0.00 0.00 0.00 64 1012.8
20260905230520 84 345 0.0 3.0 0.00 0.00 0.00 64 1012.9
20260905230038 84 70 0.0 0.0 0.00 0.00 0.00 65 1012.9
20260905225519 84 0 0.0 0.0 0.00 0.00 0.00 66 1012.9
20260905225019 84 0 0.0 0.0 0.00 0.00 0.00 67 1013.1
20260905224535 84 0 0.0 1.0 0.00 0.00 0.00 67 1013.4
20260905224020 84 150 0.0 1.0 0.00 0.00 0.00 65 1013.1
20260905223520 84 142 0.0 1.0 0.00 0.00 0.00 67 1013.3
20260905223039 85 0 0.0 2.0 0.00 0.00 0.00 65 1013.3
20260905222522 87 0 0.0 10.0 0.00 0.00 0.00 62 1013.3
20260905222020 89 128 0.0 10.0 0.00 0.00 0.00 60 1013.4
20260905221537 91 0 3.0 10.0 0.00 0.00 0.00 57 1013.4
20260905221017 91 8 2.0 14.0 0.00 0.00 0.00 56 1013.3
20260905220519 92 341 2.0 14.0 0.00 0.00 0.00 53 1013.1
20260905220037 93 360 2.0 6.0 0.00 0.00 0.00 50 1012.9
20260905215518 94 20 2.0 6.0 0.00 0.00 0.00 48 1013.0
20260905215023 94 354 2.0 8.0 0.00 0.00 0.00 49 1013.0
20260905214539 95 9 1.0 8.0 0.00 0.00 0.00 47 1012.8
20260905214023 96 301 2.0 9.0 0.00 0.00 0.00 45 1012.8
20260905213521 96 18 2.0 9.0 0.00 0.00 0.00 46 1012.7
20260905213035 96 5 1.0 6.0 0.00 0.00 0.00 47 1012.7
20260905212521 96 326 2.0 6.0 0.00 0.00 0.00 46 1012.8
20260905212021 96 285 1.0 6.0 0.00 0.00 0.00 47 1012.8
20260905211540 97 333 2.0 6.0 0.00 0.00 0.00 47 1012.9
20260905211018 97 0 1.0 4.0 0.00 0.00 0.00 47 1012.8
20260905210518 97 47 1.0 5.0 0.00 0.00 0.00 44 1012.8
20260905210038 97 26 0.0 5.0 0.00 0.00 0.00 46 1012.7
20260905205519 96 342 2.0 5.0 0.00 0.00 0.00 47 1012.8
20260905205018 96 44 1.0 5.0 0.00 0.00 0.00 46 1012.9
20260905204539 96 360 2.0 5.0 0.00 0.00 0.00 47 1013.1
20260905204019 95 349 1.0 5.0 0.00 0.00 0.00 48 1013.1
20260905203516 94 17 0.0 3.0 0.00 0.00 0.00 49 1013.2
20260905203036 93 0 0.0 4.0 0.00 0.00 0.00 50 1013.4
20260905202520 94 13 0.0 5.0 0.00 0.00 0.00 49 1013.4
20260905202021 95 333 2.0 5.0 0.00 0.00 0.00 48 1013.5
20260905201536 96 1 1.0 5.0 0.00 0.00 0.00 49 1013.5
20260905201019 95 0 1.0 4.0 0.00 0.00 0.00 49 1013.6
20260905200522 94 0 0.0 4.0 0.00 0.00 0.00 50 1013.7
20260905200043 94 359 0.0 4.0 0.00 0.00 0.00 49 1013.8
20260905195520 95 0 0.0 4.0 0.00 0.00 0.00 48 1013.8
20260905195019 95 326 1.0 4.0 0.00 0.00 0.00 52 1013.9
20260905194541 95 0 1.0 5.0 0.00 0.00 0.00 50 1014.0
20260905194019 96 319 2.0 5.0 0.00 0.00 0.00 49 1014.0
20260905193526 96 11 1.0 4.0 0.00 0.00 0.00 50 1014.0
20260905193036 96 100 1.0 4.0 0.00 0.00 0.00 47 1014.1
20260905192520 96 301 1.0 4.0 0.00 0.00 0.00 47 1014.2
20260905192020 95 56 1.0 4.0 0.00 0.00 0.00 50 1014.3
20260905191542 94 0 0.0 2.0 0.00 0.00 0.00 54 1014.2
20260905191025 93 358 0.0 2.0 0.00 0.00 0.00 53 1014.3
20260905190520 93 27 0.0 5.0 0.00 0.00 0.00 54 1014.3
20260905190046 94 0 0.0 5.0 0.00 0.00 0.00 53 1014.4
20260905185519 94 351 2.0 5.0 0.00 0.00 0.00 52 1014.6
20260905185018 95 4 1.0 6.0 0.00 0.00 0.00 53 1014.7
20260905184546 94 0 1.0 6.0 0.00 0.00 0.00 55 1014.5
20260905184020 94 327 1.0 6.0 0.00 0.00 0.00 53 1014.5
20260905183523 94 0 1.0 7.0 0.00 0.00 0.00 53 1014.6
20260905183038 96 324 1.0 7.0 0.00 0.00 0.00 52 1014.7
20260905182520 95 14 1.0 6.0 0.00 0.00 0.00 58 1014.8
20260905182021 94 285 1.0 6.0 0.00 0.00 0.00 57 1014.8
20260905181539 93 328 0.0 3.0 0.00 0.00 0.00 55 1015.0
20260905181019 93 0 0.0 4.0 0.00 0.00 0.00 56 1015.1
20260905180520 92 41 1.0 4.0 0.00 0.00 0.00 58 1015.2
20260905180036 92 354 2.0 8.0 0.00 0.00 0.00 57 1015.2
20260905175518 93 284 2.0 8.0 0.00 0.00 0.00 57 1015.3
20260905175023 91 355 1.0 8.0 0.00 0.00 0.00 60 1015.4
20260905174541 92 0 0.0 6.0 0.00 0.00 0.00 58 1015.4
20260905174021 93 0 1.0 6.0 0.00 0.00 0.00 58 1015.6
20260905173520 94 322 1.0 6.0 0.00 0.00 0.00 55 1015.5
20260905173037 94 49 0.0 7.0 0.00 0.00 0.00 57 1015.4
20260905172521 94 326 2.0 7.0 0.00 0.00 0.00 56 1015.4
20260905172019 95 352 3.0 7.0 0.00 0.00 0.00 56 1015.5
20260905171545 95 332 0.0 7.0 0.00 0.00 0.00 55 1015.5
20260905171021 95 34 1.0 6.0 0.00 0.00 0.00 56 1015.5
20260905170520 94 300 1.0 5.0 0.00 0.00 0.00 56 1015.7
20260905170040 93 32 1.0 5.0 0.00 0.00 0.00 56 1015.9
20260905165516 94 301 2.0 5.0 0.00 0.00 0.00 57 1015.9
20260905165016 93 22 2.0 5.0 0.00 0.00 0.00 60 1015.9
20260905164538 92 311 2.0 7.0 0.00 0.00 0.00 62 1016.0
20260905164019 93 23 1.0 7.0 0.00 0.00 0.00 59 1016.1
20260905163521 94 319 2.0 7.0 0.00 0.00 0.00 59 1016.1
20260905163041 94 300 1.0 6.0 0.00 0.00 0.00 59 1016.1
20260905162518 93 0 1.0 6.0 0.00 0.00 0.00 61 1016.0
20260905162020 93 348 1.0 5.0 0.00 0.00 0.00 60 1016.1
20260905161537 92 0 0.0 5.0 0.00 0.00 0.00 63 1016.2
20260905161018 91 36 2.0 6.0 0.00 0.00 0.00 64 1016.3
20260905160519 91 11 1.0 6.0 0.00 0.00 0.00 63 1016.4
20260905160040 91 0 1.0 6.0 0.00 0.00 0.00 63 1016.6
20260905155521 90 27 1.0 6.0 0.00 0.00 0.00 65 1016.4
20260905155017 90 10 3.0 7.0 0.00 0.00 0.00 66 1016.5
20260905154539 89 24 2.0 7.0 0.00 0.00 0.00 65 1016.6
20260905154020 89 323 3.0 6.0 0.00 0.00 0.00 67 1016.8
20260905153520 89 16 2.0 5.0 0.00 0.00 0.00 67 1016.9
20260905153055 88 288 0.0 4.0 0.00 0.00 0.00 66 1017.0
20260905152519 89 25 0.0 4.0 0.00 0.00 0.00 67 1016.8
20260905152021 88 4 1.0 4.0 0.00 0.00 0.00 71 1016.8
20260905151539 88 358 1.0 4.0 0.00 0.00 0.00 69 1016.8
20260905151018 87 273 1.0 3.0 0.00 0.00 0.00 71 1016.8
20260905150520 86 342 0.0 3.0 0.00 0.00 0.00 72 1016.8
20260905150039 86 2 1.0 5.0 0.00 0.00 0.00 72 1017.0
20260905145520 86 10 1.0 5.0 0.00 0.00 0.00 71 1017.0
20260905145019 86 4 1.0 5.0 0.00 0.00 0.00 72 1016.7
20260905144538 85 0 0.0 4.0 0.00 0.00 0.00 75 1016.8
20260905144019 84 356 2.0 4.0 0.00 0.00 0.00 73 1016.8
20260905143520 84 25 2.0 3.0 0.00 0.00 0.00 73 1016.8
20260905143037 84 353 1.0 4.0 0.00 0.00 0.00 78 1016.9
20260905142518 83 25 1.0 4.0 0.00 0.00 0.00 77 1016.9
20260905142018 83 359 1.0 4.0 0.00 0.00 0.00 78 1017.0
20260905141550 82 349 1.0 4.0 0.00 0.00 0.00 77 1016.8
20260905141017 82 43 2.0 4.0 0.00 0.00 0.00 78 1016.8
20260905140518 82 355 1.0 3.0 0.00 0.00 0.00 78 1016.8
20260905140036 82 37 1.0 3.0 0.00 0.00 0.00 79 1016.8
20260905135519 82 353 1.0 3.0 0.00 0.00 0.00 80 1016.9
20260905135020 82 23 0.0 3.0 0.00 0.00 0.00 79 1016.9
20260905134535 82 345 1.0 3.0 0.00 0.00 0.00 80 1017.0
20260905134020 82 18 1.0 2.0 0.00 0.00 0.00 81 1017.0
20260905133517 81 0 0.0 2.0 0.00 0.00 0.00 81 1017.0
20260905133037 81 356 0.0 2.0 0.00 0.00 0.00 82 1017.0
20260905132518 80 26 0.0 2.0 0.00 0.00 0.00 83 1017.0
20260905132022 80 348 0.0 2.0 0.00 0.00 0.00 83 1017.0
20260905131536 79 31 0.0 2.0 0.00 0.00 0.00 83 1017.1
20260905131021 79 0 0.0 2.0 0.00 0.00 0.00 83 1017.1
20260905130520 79 31 0.0 2.0 0.00 0.00 0.00 82 1017.0
20260905130036 79 0 0.0 1.0 0.00 0.00 0.00 84 1017.0
20260905125522 78 0 0.0 3.0 0.00 0.00 0.00 85 1017.1
20260905125019 78 6 1.0 3.0 0.00 0.00 0.00 85 1017.1
20260905124541 78 24 1.0 3.0 0.00 0.00 0.00 85 1017.1
20260905124023 78 0 0.0 2.0 0.00 0.00 0.00 84 1017.1
20260905123518 78 0 0.0 2.0 0.00 0.00 0.00 83 1016.9
20260905123038 78 0 0.0 1.0 0.00 0.00 0.00 83 1016.9
20260905122518 78 0 0.0 2.0 0.00 0.00 0.00 82 1016.9
20260905122024 78 0 0.0 2.0 0.00 0.00 0.00 82 1016.9
20260905121537 78 32 0.0 2.0 0.00 0.00 0.00 81 1016.8
20260905121020 78 0 0.0 0.0 0.00 0.00 0.00 80 1016.8
20260905120519 78 0 0.0 1.0 0.00 0.00 0.00 80 1016.7